Weather History for Allentown, PA

Change the Weather History Date:

Saturday, April 5, 2014

  Actual Average (KABE) Record (KABE)
Temperature  
Mean Temperature 44 °F 46 °F  
Max Temperature 50 °F 57 °F 82 °F (1928)
Min Temperature 37 °F 35 °F 21 °F (1995)
Degree Days  
Heating Degree Days 20 19  
Month to date heating degree days 98  
Since 1 July heating degree days 5210  
Cooling Degree Days 0 0  
Month to date cooling degree days 0  
Year to date cooling degree days 0  
Moisture  
Dew Point 29 °F    
Average Humidity 58    
Maximum Humidity 87    
Minimum Humidity 35    
Precipitation  
Precipitation 0.00 in 0.11 in 1.96 in (1952)
Month to date precipitation 0.61  
Year to date precipitation 9.73  
Snow  
Snow 0.00 in 0.10 in 2.80 in (1944)
Month to date snowfall 0.3  
Since 1 July snowfall 32.2  
Snow Depth -    
Sea Level Pressure  
Sea Level Pressure 29.91 in    
Wind  
Wind Speed 7 mph (West)    
Max Wind Speed 21 mph    
Max Gust Speed 33 mph    
Visibility 8 miles    
Events Fog    
T = Trace of Precipitation, MM = Missing Value Source: NWS Daily Summary

Daily Weather History Graph

Daily Weather History Graph

Search for Another Location

Airport:

Trip Planner

Search our weather history database for the weather conditions in past years. The results will help you decide how hot, cold, wet, or windy it might be!

Date:

Astronomy

Apr. 05, 2014 Rise Set
Actual Time 6:39 AM EDT 7:30 PM EDT
Civil Twilight 6:11 AM EDT 7:58 PM EDT
Nautical Twilight 5:38 AM EDT 8:31 PM EDT
Astronomical Twilight 5:04 AM EDT 9:05 PM EDT
Moon 10:43 AM EDT (4/5) 12:39 AM EDT (4/5)
Length of Visible Light 13h 47m
Length of Day
12h 51m
Waxing Crescent, 34% of the Moon is Illuminated
Apr 5
Waxing Crescent
Apr 7
First Quarter
Apr 15
Full
Apr 22
Last Quarter
Apr 29
New

Hourly Weather History & Observations

Time (EDT) Temp. Windchill Dew Point Humidity Pressure Visibility Wind Dir Wind Speed Gust Speed Precip Events Conditions
12:15 AM 41.0 °F 38.0 °F 37.4 °F 87% 29.80 in 5.0 mi NNW 4.6 mph - N/A   Overcast
12:35 AM 42.8 °F - 37.4 °F 81% 29.77 in 4.0 mi Calm Calm - N/A   Haze
12:55 AM 42.8 °F 41.1 °F 37.4 °F 81% 29.77 in 4.0 mi North 3.5 mph - N/A   Haze
1:15 AM 41.0 °F 39.0 °F 37.4 °F 87% 29.77 in 5.0 mi NNE 3.5 mph - N/A   Overcast
1:35 AM 41.0 °F 38.0 °F 37.4 °F 87% 29.77 in 7.0 mi North 4.6 mph - N/A   Overcast
1:55 AM 41.0 °F 38.0 °F 37.4 °F 87% 29.77 in 5.0 mi NNE 4.6 mph - N/A   Overcast
2:15 AM 41.0 °F 38.0 °F 37.4 °F 87% 29.76 in 5.0 mi North 4.6 mph - N/A   Overcast
2:35 AM 41.0 °F 38.0 °F 37.4 °F 87% 29.76 in 4.0 mi NNE 4.6 mph - N/A   Overcast
2:55 AM 41.0 °F 39.0 °F 37.4 °F 87% 29.76 in 3.0 mi North 3.5 mph - N/A   Overcast
3:15 AM 41.0 °F - 37.4 °F 87% 29.76 in 2.0 mi Calm Calm - N/A   Overcast
3:35 AM 41.0 °F - 37.4 °F 87% 29.76 in 1.2 mi Calm Calm - N/A   Overcast
3:55 AM 41.0 °F - 37.4 °F 87% 29.78 in 1.0 mi Calm Calm - N/A   Overcast
4:15 AM 41.0 °F - 37.4 °F 87% 29.78 in 0.8 mi Calm Calm - N/A   Overcast
4:35 AM 41.0 °F 39.0 °F 35.6 °F 81% 29.77 in 0.2 mi South 3.5 mph - N/A Fog Fog
4:55 AM 41.0 °F 39.0 °F 35.6 °F 81% 29.78 in 0.2 mi SW 3.5 mph - N/A Fog Fog
5:15 AM 41.0 °F 38.0 °F 35.6 °F 81% 29.79 in 0.2 mi SW 4.6 mph - N/A Fog Fog
5:35 AM 41.0 °F 39.0 °F 37.4 °F 87% 29.80 in 0.5 mi WSW 3.5 mph - N/A Fog Fog
5:55 AM 41.0 °F 38.0 °F 37.4 °F 87% 29.81 in 2.5 mi WSW 4.6 mph - N/A   Mostly Cloudy
6:15 AM 41.0 °F 38.0 °F 35.6 °F 81% 29.81 in 4.0 mi WSW 4.6 mph - N/A   Scattered Clouds
6:35 AM 41.0 °F 36.4 °F 35.6 °F 81% 29.82 in 3.0 mi West 6.9 mph - N/A   Scattered Clouds
6:55 AM 41.0 °F 37.1 °F 37.4 °F 87% 29.83 in 3.0 mi WSW 5.8 mph - N/A   Overcast
7:15 AM 42.8 °F 39.3 °F 37.4 °F 81% 29.84 in 3.0 mi WSW 5.8 mph - N/A   Overcast
7:35 AM 42.8 °F 39.3 °F 37.4 °F 81% 29.85 in 3.0 mi WSW 5.8 mph - N/A   Overcast
7:55 AM 42.8 °F 39.3 °F 37.4 °F 81% 29.86 in 3.0 mi SW 5.8 mph - N/A   Overcast
8:15 AM 42.8 °F 38.0 °F 37.4 °F 81% 29.86 in 7.0 mi West 8.1 mph - N/A   Scattered Clouds
8:35 AM 46.4 °F 40.1 °F 32.0 °F 57% 29.86 in 10.0 mi West 15.0 mph 21.9 mph N/A   Scattered Clouds
8:55 AM 44.6 °F 38.4 °F 30.2 °F 57% 29.88 in 10.0 mi West 12.7 mph 23.0 mph N/A   Mostly Cloudy
9:15 AM 44.6 °F 39.2 °F 30.2 °F 57% 29.88 in 10.0 mi West 10.4 mph 23.0 mph N/A   Overcast
9:35 AM 46.4 °F 41.5 °F 30.2 °F 53% 29.89 in 10.0 mi WNW 10.4 mph 16.1 mph N/A   Overcast
9:55 AM 44.6 °F 39.2 °F 30.2 °F 57% 29.90 in 10.0 mi WNW 10.4 mph 16.1 mph N/A   Overcast
10:15 AM 44.6 °F 39.7 °F 30.2 °F 57% 29.90 in 10.0 mi West 9.2 mph 19.6 mph N/A   Overcast
10:35 AM 44.6 °F 36.9 °F 28.4 °F 53% 29.91 in 10.0 mi WNW 18.4 mph 23.0 mph N/A   Overcast
10:55 AM 44.6 °F 36.4 °F 28.4 °F 53% 29.91 in 10.0 mi West 20.7 mph 33.4 mph N/A   Overcast
11:15 AM 46.4 °F 40.1 °F 28.4 °F 50% 29.91 in 10.0 mi West 15.0 mph 23.0 mph N/A   Mostly Cloudy
11:35 AM 46.4 °F 40.1 °F 26.6 °F 46% 29.91 in 10.0 mi WNW 15.0 mph 26.5 mph N/A   Mostly Cloudy
11:55 AM 46.4 °F 39.2 °F 26.6 °F 46% 29.92 in 10.0 mi West 18.4 mph 26.5 mph N/A   Overcast
12:15 PM 46.4 °F 39.2 °F 24.8 °F 43% 29.92 in 10.0 mi West 18.4 mph 31.1 mph N/A   Overcast
12:35 PM 46.4 °F 40.1 °F 23.0 °F 40% 29.93 in 10.0 mi West 15.0 mph 28.8 mph N/A   Overcast
12:55 PM 46.4 °F 40.4 °F 23.0 °F 40% 29.93 in 10.0 mi WNW 13.8 mph 26.5 mph N/A   Overcast
1:15 PM 46.4 °F 39.5 °F 23.0 °F 40% 29.93 in 10.0 mi West 17.3 mph 23.0 mph N/A   Overcast
1:35 PM 48.2 °F - 23.0 °F 37% 29.94 in 10.0 mi West 19.6 mph 31.1 mph N/A   Overcast
1:55 PM 50.0 °F - 23.0 °F 35% 29.94 in 10.0 mi WNW 15.0 mph 26.5 mph N/A   Overcast
2:15 PM 50.0 °F - 23.0 °F 35% 29.94 in 10.0 mi West 19.6 mph 29.9 mph N/A   Overcast
2:35 PM 48.2 °F - 23.0 °F 37% 29.95 in 10.0 mi WNW 17.3 mph 27.6 mph N/A   Mostly Cloudy
2:55 PM 50.0 °F - 24.8 °F 37% 29.95 in 10.0 mi WNW 15.0 mph 24.2 mph N/A   Overcast
3:15 PM 50.0 °F - 23.0 °F 35% 29.95 in 10.0 mi West 18.4 mph 27.6 mph N/A   Overcast
3:35 PM 50.0 °F - 23.0 °F 35% 29.95 in 10.0 mi WNW 15.0 mph 27.6 mph N/A   Overcast
3:55 PM 50.0 °F - 24.8 °F 37% 29.96 in 10.0 mi West 19.6 mph 27.6 mph N/A   Overcast
4:15 PM 48.2 °F - 23.0 °F 37% 29.97 in 10.0 mi West 18.4 mph 32.2 mph N/A   Mostly Cloudy
4:35 PM 50.0 °F - 23.0 °F 35% 29.97 in 10.0 mi West 13.8 mph 27.6 mph N/A   Mostly Cloudy
4:55 PM 48.2 °F - 23.0 °F 37% 29.98 in 10.0 mi West 18.4 mph 33.4 mph N/A   Scattered Clouds
5:15 PM 48.2 °F - 23.0 °F 37% 29.99 in 10.0 mi WNW 16.1 mph 24.2 mph N/A   Scattered Clouds
5:35 PM 48.2 °F - 23.0 °F 37% 29.99 in 10.0 mi WNW 12.7 mph 25.3 mph N/A   Scattered Clouds
5:55 PM 46.4 °F 40.7 °F 21.2 °F 37% 30.00 in 10.0 mi WNW 12.7 mph 26.5 mph N/A   Scattered Clouds
6:15 PM 46.4 °F 39.8 °F 21.2 °F 37% 30.01 in 10.0 mi West 16.1 mph 21.9 mph N/A   Clear
6:55 PM 44.6 °F 39.7 °F 21.2 °F 39% 30.02 in 10.0 mi WNW 9.2 mph 16.1 mph N/A   Scattered Clouds
7:15 PM 44.6 °F 38.8 °F 21.2 °F 39% 30.03 in 10.0 mi WNW 11.5 mph 17.3 mph N/A   Clear
7:35 PM 44.6 °F 39.7 °F 21.2 °F 39% 30.04 in 10.0 mi WNW 9.2 mph - N/A   Clear
7:55 PM 42.8 °F 37.5 °F 21.2 °F 42% 30.04 in 10.0 mi West 9.2 mph 19.6 mph N/A   Clear
8:15 PM 42.8 °F 38.0 °F 21.2 °F 42% 30.06 in 10.0 mi WNW 8.1 mph - N/A   Clear
8:35 PM 42.8 °F 38.6 °F 21.2 °F 42% 30.07 in 10.0 mi West 6.9 mph - N/A   Clear
8:55 PM 42.8 °F 40.1 °F 21.2 °F 42% 30.07 in 10.0 mi West 4.6 mph - N/A   Clear
9:15 PM 41.0 °F 37.1 °F 21.2 °F 45% 30.08 in 10.0 mi West 5.8 mph - N/A   Clear
9:35 PM 41.0 °F 37.1 °F 21.2 °F 45% 30.09 in 10.0 mi West 5.8 mph - N/A   Clear
9:55 PM 41.0 °F 36.4 °F 21.2 °F 45% 30.09 in 10.0 mi West 6.9 mph - N/A   Clear
10:15 PM 41.0 °F 35.8 °F 21.2 °F 45% 30.09 in 10.0 mi West 8.1 mph - N/A   Clear
10:35 PM 41.0 °F 35.8 °F 21.2 °F 45% 30.10 in 10.0 mi West 8.1 mph - N/A   Clear
10:55 PM 39.2 °F 35.0 °F 21.2 °F 49% 30.11 in 10.0 mi West 5.8 mph - N/A   Clear
11:15 PM 39.2 °F 37.0 °F 21.2 °F 49% 30.12 in 10.0 mi West 3.5 mph - N/A   Clear
11:35 PM 37.4 °F 34.9 °F 21.2 °F 52% 30.13 in 10.0 mi WSW 3.5 mph - N/A   Clear